Simultaneous Nadir Overpasses (SNOs) Predictions

Prediction of SNOs between GOES-17 and NOAA-19 Satellite Orbit:

Table of predicted SNOs for the next 14.0 days since TLE Epoch: 6/6/2025
Index Date Time (GOES-17) GOES-17 Lat,Lon NOAA-19 Lat,Lon Distance(km) Time Diff (sec)
1 06/09/2025 04:54:41 -0.01,-104.38 -0.44,-106.18 206.43 80
2 06/10/2025 04:39:24 -0.01,-104.38 0.30,-103.13 143.37 80
3 06/11/2025 04:26:45 -0.00,-104.37 0.99,-100.05 493.08 80
4 06/12/2025 16:57:56 0.00,-104.43 0.69,-107.55 355.44 80
5 06/13/2025 16:45:17 0.00,-104.43 0.02,-104.48 5.69 80
6 06/14/2025 16:35:20 0.00,-104.43 -0.72,-101.42 344.09 80
7 06/17/2025 04:53:58 -0.00,-104.37 -0.34,-105.86 170.37 80
8 06/18/2025 04:38:39 -0.01,-104.36 0.36,-102.79 179.58 80
9 06/20/2025 16:57:12 0.00,-104.41 0.66,-107.22 320.26 80
